Top countries

USA - 11230
Canada - 2057
United Kingdom - 1972
Australia - 1242
Poland - 1143
Brazil - 1135
Germany - 1111
Iran - 1085
Russia - 991
France - 957
Greece - 957
Mexico - 935
Some observations

Total members: 54012
Guys: 44763
Girls: 9209

Positions

Admin
Staff
Moderator
Elite
Contributor
Search







Pages: 1 ... 790 791 792 [793] 794 795 796 ... 1081
Username Sex Age Location Registered Last seen online Posts Points
39601 Marissa Yemen 08.06.2013 never 0 0
39602 Deadcenter Ukraine 08.06.2013 500d ago 0 0
39603 Ramiro Zambia 08.06.2013 never 0 0
39604 veal Poland 08.06.2013 504d ago 0 0
39605 Le3o 17 Paraguay 08.06.2013 504d ago 0 0
39606 Nocturne Iran 08.06.2013 never 0 0
39607 Nocturne-km Iran 08.06.2013 101d ago 0 0
39608 DemmelitionMan 08.06.2013 460d ago 0 0
39609 Rosalind Kiribati 09.06.2013 never 0 0
39610 bagby Latvia 09.06.2013 235d ago 0 0
39611 AliMohammed 09.06.2013 165d ago 0 0
39612 bigdr82 Australia 08.06.2013 never 0 0
39613 UncleProg 23 Poland 08.06.2013 64h ago 0 0
39614 Pavel Czech Republic 08.06.2013 497d ago 0 0
39615 romeosingal USA 08.06.2013 504d ago 0 0
39616 Maybell Oman 08.06.2013 never 0 0
39617 LordInfinity Argentina 08.06.2013 never 0 0
39618 deepgrowl88 37 Norway 09.06.2013 503d ago 0 0
39619 tempoklad United Kingdom 08.06.2013 22h ago 0 0
39620 siki Serbia 09.06.2013 490d ago 0 0
39621 quill5soccer Indonesia 08.06.2013 never 0 0
39622 Leigh Latvia 09.06.2013 never 0 0
39623 hieidemon Argentina 08.06.2013 387d ago 0 0
39624 Kenton Brunei 08.06.2013 never 0 0
39625 DavideIsola 09.06.2013 504d ago 0 0
39626 A6'sGurrrl 15 USA 09.06.2013 504d ago 0 0
39627 kyyvits Estonia 09.06.2013 503d ago 0 0
39628 gchirinoegui 24 Venezuela 10.06.2013 41h ago 0 0
39629 engenas Lithuania 09.06.2013 180d ago 0 0
39630 Janrey United Kingdom 09.06.2013 504d ago 0 0
39631 RikardIncarnit Sweden 09.06.2013 503d ago 0 0
39632 ego Italy 09.06.2013 never 0 0
39633 Gchirino Venezuela 10.06.2013 never 0 0
39634 Jenna Korea, South 10.06.2013 never 0 0
39635 Emba Sweden 09.06.2013 never 0 0
39636 grooweN Sweden 09.06.2013 502d ago 0 0
39637 TiiaLutsoja 09.06.2013 326d ago 0 0
39638 QueenMiSeRy Italy 09.06.2013 457d ago 0 0
39639 onslaught United Kingdom 10.06.2013 494d ago 0 8
39640 BalletRocker 21 Iceland 09.06.2013 238d ago 0 0
39641 Uta Greece 09.06.2013 never 0 0
39642 temptation 22 Poland 10.06.2013 19d ago 0 0
39643 Mkuusi Finland 09.06.2013 503d ago 0 0
39644 carlos sebastian Puerto Rico 09.06.2013 never 0 0
39645 JamieLaverickPoetry   09.06.2013 503d ago 0 0
39646 max101 Ireland 09.06.2013 497d ago 0 0
39647 Joao.Martins 25 Portugal 09.06.2013 503d ago 0 0
39648 juri1012 Germany 09.06.2013 39d ago 0 0
39649 Shanna Somalia 09.06.2013 never 0 0
39650 Dafa01 Sweden 09.06.2013 237d ago 0 0
Pages: 1 ... 790 791 792 [793] 794 795 796 ... 1081